• In Deutschland
  • Länderverzeichnis
  • Für 7 Tage
  • Wassertemperatur
  • Satellitenkarten
  • Wetterkarte
  • Widgets
  • user-avatar
    Anmelden

    Stündliche Wetter Natal

    Heute, 18 Juni, Montag

    Zeit Temperatur Niederschläge Wind Luftdruck Luftfeuchtigkeit
    00:00 +23°C° 0,8 mm 4 m/S 763 mmHg 95%
    01:00 +23°C° 0,8 mm 4 m/S 763 mmHg 95%
    02:00 +23°C° 0,5 mm 4 m/S 763 mmHg 96%
    03:00 +23°C° 0,5 mm 4 m/S 763 mmHg 96%
    04:00 +23°C° 0 mm 4 m/S 762 mmHg 96%
    05:00 +23°C° 0,8 mm 4 m/S 763 mmHg 97%
    06:00 +23°C° 0,8 mm 4 m/S 763 mmHg 97%
    07:00 +23°C° 0,8 mm 4 m/S 763 mmHg 97%
    08:00 +25°C° 0,6 mm 4 m/S 763 mmHg 91%
    09:00 +27°C° 0,6 mm 5 m/S 763 mmHg 85%
    10:00 +29°C° 0 mm 5 m/S 763 mmHg 78%
    11:00 +29°C° 0,3 mm 5 m/S 763 mmHg 74%
    12:00 +30°C° 0,3 mm 5 m/S 763 mmHg 69%
    13:00 +32°C° 0,3 mm 5 m/S 762 mmHg 64%
    14:00 +32°C° 0,3 mm 5 m/S 762 mmHg 65%
    15:00 +32°C° 0,3 mm 5 m/S 762 mmHg 66%
    16:00 +30°C° 0,3 mm 5 m/S 762 mmHg 67%
    17:00 +29°C° 0,2 mm 5 m/S 762 mmHg 74%
    18:00 +27°C° 0,2 mm 5 m/S 762 mmHg 81%
    19:00 +26°C° 0,2 mm 4 m/S 762 mmHg 87%
    20:00 +25°C° 0,3 mm 4 m/S 762 mmHg 89%
    21:00 +25°C° 0,3 mm 4 m/S 762 mmHg 91%
    22:00 +25°C° 0,3 mm 4 m/S 763 mmHg 93%
    23:00 +25°C° 0,3 mm 4 m/S 763 mmHg 94%

    Morgen, 19 Juni, Dienstag

    Zeit Temperatur Niederschläge Wind Luftdruck Luftfeuchtigkeit
    00:00 +23°C° 0,3 mm 4 m/S 763 mmHg 94%
    01:00 +23°C° 0,3 mm 4 m/S 763 mmHg 95%
    02:00 +23°C° 0,4 mm 4 m/S 762 mmHg 95%
    03:00 +23°C° 0,4 mm 4 m/S 762 mmHg 96%
    04:00 +23°C° 0,4 mm 4 m/S 762 mmHg 96%
    05:00 +23°C° 0,2 mm 4 m/S 762 mmHg 96%
    06:00 +23°C° 0,2 mm 4 m/S 762 mmHg 96%
    07:00 +23°C° 0,2 mm 4 m/S 762 mmHg 96%
    08:00 +25°C° 0,1 mm 5 m/S 762 mmHg 88%
    09:00 +27°C° 0,1 mm 5 m/S 763 mmHg 80%
    10:00 +29°C° 0,1 mm 6 m/S 763 mmHg 72%
    11:00 +30°C° 0,1 mm 6 m/S 763 mmHg 68%
    12:00 +32°C° 0,1 mm 6 m/S 762 mmHg 64%
    13:00 +33°C° 0,1 mm 6 m/S 762 mmHg 60%
    14:00 +32°C° 0,1 mm 6 m/S 762 mmHg 61%
    15:00 +32°C° 0,1 mm 7 m/S 761 mmHg 62%
    16:00 +32°C° 0,1 mm 7 m/S 761 mmHg 63%
    17:00 +29°C° 0 mm 6 m/S 761 mmHg 70%
    18:00 +28°C° 0 mm 6 m/S 761 mmHg 76%
    19:00 +26°C° 0 mm 6 m/S 761 mmHg 83%
    20:00 +26°C° 0,2 mm 6 m/S 762 mmHg 85%
    21:00 +24°C° 0,2 mm 6 m/S 762 mmHg 88%
    22:00 +24°C° 0,2 mm 6 m/S 762 mmHg 90%
    23:00 +23°C° 0,2 mm 6 m/S 762 mmHg 91%

    übermorgen, 20 Juni, Mittwoch

    Zeit Temperatur Niederschläge Wind Luftdruck Luftfeuchtigkeit
    00:00 +23°C° 0,2 mm 5 m/S 762 mmHg 92%
    01:00 +23°C° 0,2 mm 5 m/S 762 mmHg 94%
    02:00 +23°C° 0,2 mm 5 m/S 762 mmHg 94%
    03:00 +23°C° 0,2 mm 5 m/S 761 mmHg 94%
    04:00 +22°C° 0,2 mm 5 m/S 761 mmHg 95%
    05:00 +22°C° 0,1 mm 5 m/S 761 mmHg 95%
    06:00 +22°C° 0,1 mm 5 m/S 761 mmHg 94%
    07:00 +22°C° 0,1 mm 5 m/S 761 mmHg 94%
    08:00 +24°C° 0,2 mm 6 m/S 762 mmHg 87%
    09:00 +27°C° 0,2 mm 6 m/S 762 mmHg 80%
    10:00 +29°C° 0,2 mm 7 m/S 763 mmHg 72%
    11:00 +29°C° 0,3 mm 7 m/S 762 mmHg 72%
    12:00 +29°C° 0,3 mm 7 m/S 762 mmHg 72%
    13:00 +30°C° 0,3 mm 7 m/S 762 mmHg 71%
    14:00 +29°C° 0,2 mm 8 m/S 761 mmHg 71%
    15:00 +29°C° 0,2 mm 8 m/S 761 mmHg 71%
    16:00 +29°C° 0,2 mm 8 m/S 760 mmHg 70%
    17:00 +28°C° 0,1 mm 7 m/S 761 mmHg 75%
    18:00 +27°C° 0,1 mm 7 m/S 761 mmHg 79%
    19:00 +26°C° 0,1 mm 6 m/S 761 mmHg 84%
    20:00 +26°C° 0,1 mm 6 m/S 762 mmHg 86%
    21:00 +24°C° 0,1 mm 6 m/S 762 mmHg 88%
    22:00 +24°C° 0,1 mm 6 m/S 762 mmHg 90%
    23:00 +23°C° 0,2 mm 6 m/S 762 mmHg 91%

    21 Juni, Donnerstag

    Zeit Temperatur Niederschläge Wind Luftdruck Luftfeuchtigkeit
    00:00 +23°C° 0,2 mm 5 m/S 762 mmHg 92%
    01:00 +23°C° 0,2 mm 5 m/S 762 mmHg 93%
    02:00 +23°C° 0,4 mm 5 m/S 761 mmHg 94%
    03:00 +23°C° 0,4 mm 5 m/S 761 mmHg 95%
    04:00 +22°C° 0,4 mm 4 m/S 760 mmHg 95%
    05:00 +22°C° 0,4 mm 4 m/S 761 mmHg 95%
    06:00 +22°C° 0,4 mm 4 m/S 761 mmHg 95%
    07:00 +23°C° 0,4 mm 4 m/S 761 mmHg 95%
    08:00 +25°C° 0,3 mm 4 m/S 762 mmHg 89%
    09:00 +27°C° 0,3 mm 5 m/S 762 mmHg 82%
    10:00 +29°C° 0,3 mm 5 m/S 763 mmHg 76%
    11:00 +29°C° 0,4 mm 5 m/S 763 mmHg 74%
    12:00 +30°C° 0,4 mm 6 m/S 762 mmHg 73%
    13:00 +30°C° 0,4 mm 6 m/S 762 mmHg 71%
    14:00 +30°C° 0,3 mm 6 m/S 761 mmHg 71%
    15:00 +30°C° 0,3 mm 6 m/S 761 mmHg 70%
    16:00 +30°C° 0,3 mm 6 m/S 760 mmHg 69%
    17:00 +29°C° 0,2 mm 6 m/S 761 mmHg 75%
    18:00 +27°C° 0,2 mm 5 m/S 761 mmHg 82%
    19:00 +26°C° 0,2 mm 5 m/S 761 mmHg 88%
    20:00 +26°C° 0,2 mm 5 m/S 762 mmHg 90%
    21:00 +25°C° 0,2 mm 5 m/S 762 mmHg 92%
    22:00 +25°C° 0,2 mm 5 m/S 763 mmHg 94%
    23:00 +25°C° 0,2 mm 5 m/S 762 mmHg 94%

    22 Juni, Freitag

    Zeit Temperatur Niederschläge Wind Luftdruck Luftfeuchtigkeit
    00:00 +23°C° 0,2 mm 5 m/S 762 mmHg 95%
    01:00 +23°C° 0,2 mm 5 m/S 762 mmHg 96%
    02:00 +23°C° 0,4 mm 5 m/S 762 mmHg 96%
    03:00 +23°C° 0,4 mm 5 m/S 761 mmHg 96%
    04:00 +23°C° 0,4 mm 5 m/S 761 mmHg 96%
    05:00 +23°C° 0,2 mm 5 m/S 761 mmHg 96%
    06:00 +23°C° 0,2 mm 5 m/S 761 mmHg 96%
    07:00 +23°C° 0,2 mm 5 m/S 762 mmHg 96%
    08:00 +26°C° 0,2 mm 6 m/S 762 mmHg 89%
    09:00 +27°C° 0,2 mm 6 m/S 762 mmHg 82%
    10:00 +29°C° 0,2 mm 7 m/S 763 mmHg 75%
    11:00 +30°C° 0,2 mm 7 m/S 762 mmHg 72%
    12:00 +32°C° 0,2 mm 8 m/S 762 mmHg 69%
    13:00 +32°C° 0,2 mm 8 m/S 761 mmHg 66%
    14:00 +32°C° 0,1 mm 8 m/S 761 mmHg 65%
    15:00 +32°C° 0,1 mm 8 m/S 760 mmHg 65%
    16:00 +31°C° 0,1 mm 8 m/S 760 mmHg 64%
    17:00 +29°C° 0 mm 8 m/S 760 mmHg 69%
    18:00 +27°C° 0 mm 7 m/S 761 mmHg 75%
    19:00 +26°C° 0 mm 6 m/S 761 mmHg 80%
    20:00 +24°C° 0 mm 6 m/S 761 mmHg 83%
    21:00 +24°C° 0 mm 6 m/S 762 mmHg 85%
    22:00 +24°C° 0 mm 6 m/S 762 mmHg 88%
    23:00 +23°C° 0,1 mm 6 m/S 762 mmHg 89%

    23 Juni, Samstag

    Zeit Temperatur Niederschläge Wind Luftdruck Luftfeuchtigkeit
    00:00 +23°C° 0,1 mm 6 m/S 761 mmHg 91%
    01:00 +23°C° 0,1 mm 5 m/S 761 mmHg 92%
    02:00 +23°C° 0,1 mm 6 m/S 761 mmHg 93%
    03:00 +22°C° 0,1 mm 6 m/S 760 mmHg 93%
    04:00 +22°C° 0,1 mm 6 m/S 760 mmHg 94%
    05:00 +22°C° 0 mm 6 m/S 760 mmHg 93%
    06:00 +22°C° 0 mm 6 m/S 760 mmHg 93%
    07:00 +22°C° 0 mm 6 m/S 761 mmHg 92%
    08:00 +24°C° 0 mm 7 m/S 761 mmHg 81%
    09:00 +28°C° 0 mm 7 m/S 761 mmHg 71%
    10:00 +31°C° 0 mm 8 m/S 761 mmHg 60%
    11:00 +32°C° 0 mm 8 m/S 761 mmHg 56%
    12:00 +33°C° 0 mm 8 m/S 761 mmHg 53%
    13:00 +33°C° 0 mm 8 m/S 760 mmHg 49%
    14:00 +33°C° 0 mm 8 m/S 760 mmHg 52%
    15:00 +33°C° 0 mm 7 m/S 759 mmHg 54%
    16:00 +32°C° 0 mm 7 m/S 759 mmHg 56%
    17:00 +30°C° 0 mm 7 m/S 759 mmHg 65%
    18:00 +28°C° 0 mm 6 m/S 760 mmHg 74%
    19:00 +26°C° 0 mm 6 m/S 760 mmHg 82%
    20:00 +26°C° 0,1 mm 5 m/S 760 mmHg 86%
    21:00 +25°C° 0,1 mm 5 m/S 761 mmHg 89%
    22:00 +25°C° 0,1 mm 5 m/S 761 mmHg 92%
    23:00 +25°C° 0,2 mm 5 m/S 761 mmHg 93%
    Mehr zeigen